Voltar ao catálogo

USA 184

AtivoMilitarHEO
NORAD 29249·PAYLOAD·🇺🇸 United States

Lançado Jun 28, 2006 de Vandenberg Space Force Base

Loading…

Próximas Passagens (próximas 24 horas)

TLE

AtualizadoSource: Mike McCants

Época: Sep 14, 2026, 16:54 UTC

1 29249U 06027A   26257.70485767  .00000237  00000-0  00000-0 0    02
2 29249  63.4950 229.1563 6803418 273.1219  17.3758  2.00618127  5618

Acompanhe USA 184 em tempo real com AllMySat

Download on the App Store